Location: Astronomy Club of Akron Observatory
(40.9700°N, 81.5606°W)
Time: 10:02:51
(UTC-04:00)

Daily predictions for brighter satellites

Satellite Brightness Start Highest point End
(mag) Time Altitude Azimuth Time Altitude Azimuth Time Altitude Azimuth
Cosmos 2227 Rocket 2.3 20:22:43 10° NNW 20:28:22 64° ENE 20:33:58 10° SE
Resurs 01 Rocket 1.8 20:25:38 10° S 20:30:04 81° WSW 20:34:32 10° NNW
FengYun 1-2 T 4.3 20:26:19 10° SSE 20:31:56 73° ENE 20:37:32 10° N
HJ-1C 4.2 20:34:35 10° S 20:37:47 54° W 20:41:03 10° NNW
OAO 2 Rocket 4.0 20:34:26 10° WSW 20:39:06 40° S 20:43:50 10° ESE
Meteor 1-29 3.6 20:37:30 10° N 20:40:55 61° WNW 20:44:20 10° SSW
Cosmos 2297 Rocket 2.3 20:37:50 10° NNW 20:43:28 61° ENE 20:49:02 10° SE
Cosmos 2082 3.7 20:38:37 10° NNW 20:44:16 81° ENE 20:49:53 10° SSE
Meteor 1-5 Rocket 4.3 20:41:41 10° S 20:47:02 83° W 20:52:34 10° N
ALOS 2.2 20:43:52 10° SSE 20:48:31 72° ENE 20:53:11 10° N
Cosmos 1346 Rocket 3.0 20:46:26 10° NNW 20:50:24 74° W 20:54:23 10° S
Cosmos 1939 Rocket 4.5 20:49:04 12° ESE 20:51:39 19° ENE 20:54:38 10° NNE
Helios 1A 4.4 20:50:05 10° S 20:54:02 41° W 20:58:01 10° NNW
USA 186 1.7 20:52:31 10° SSE 20:55:30 54° ENE 20:58:20 10° N
OTV 4 2.4 20:54:07 10° WSW 20:56:24 20° SSW 20:58:28 11° SSE
NOSS 3-4 (A) 4.4 20:50:45 10° NW 20:57:40 59° WSW 21:04:59 10° SSE
NOSS 3-4 (C) 4.4 20:50:52 10° NW 20:57:48 60° WSW 21:05:07 10° SSE
Cosmos 1515 4.2 20:55:31 10° N 20:59:11 41° ENE 21:02:35 11° SSE
Cosmos 1461 3.9 20:59:09 10° NW 21:03:00 42° WSW 21:06:43 10° S
SL-24 R/B - RUBIN 2 4.3 20:57:52 10° SSW 21:03:41 78° ESE 21:10:10 10° NE
Cosmos 1605 Rocket 4.2 21:06:06 10° S 21:12:25 79° W 21:18:43 10° N
CZ-4B DEB 4.4 21:10:01 10° SSW 21:13:04 35° W 21:16:08 10° NNW
Cosmos 1743 3.6 21:13:07 20° SE 21:15:00 29° E 21:18:26 10° NNE
Tiangong 1 1.1 21:14:18 10° WNW 21:17:25 73° N 21:18:49 29° E
BREEZE-M DEB (TANK) 4.3 20:58:01 10° SW 21:17:28 70° SSE 21:22:26 10° ENE
RESURS DK-1 2.9 21:13:37 10° NNW 21:17:36 43° ENE 21:19:38 24° ESE
Cosmos 1697 Rocket 2.6 21:13:06 10° S 21:18:41 66° ESE 21:24:18 10° NNE
Cosmos 1066 Rocket 4.3 21:14:57 10° N 21:20:36 63° ENE 21:25:46 13° SSE
H-2A R/B 3.1 21:20:45 22° E 21:21:53 25° ENE 21:25:18 10° NNE
Cosmos 2100 Rocket 4.1 21:16:06 10° SSE 21:22:09 53° E 21:28:11 10° NNE
Iridium 4 Rocket 3.2 21:18:47 10° N 21:23:49 85° E 21:28:22 10° S
Cosmos 1626 Rocket 3.9 21:20:49 10° NNW 21:25:11 67° W 21:29:29 10° S
BREEZE-M DEB (TANK) 4.4 21:21:27 10° WSW 21:25:41 84° NNW 21:42:04 10° ENE
Envisat 3.4 21:23:26 22° SE 21:26:24 45° ENE 21:31:14 10° N
Cosmos 2298 Rocket 4.0 21:22:06 10° NNW 21:27:27 89° WSW 21:31:50 15° SSE
YAOGAN 11 4.1 21:24:13 18° SSE 21:27:28 67° ENE 21:31:54 10° N
Cosmos 1937 Rocket 3.6 21:23:38 10° NNW 21:28:53 62° ENE 21:32:03 24° SE
SL-16 R/B 3.9 21:31:24 14° ENE 21:31:24 14° ENE 21:32:50 10° ENE
Cosmos 2084 3.5 21:26:41 10° NW 21:30:46 74° WSW 21:33:08 25° SSE
Cosmos 2061 Rocket 4.0 21:26:09 10° S 21:32:19 58° E 21:38:26 10° NNE
Cosmos 1602 Rocket 4.4 21:30:36 10° NNW 21:34:56 52° W 21:39:13 10° S
Cosmos 1758 Rocket 4.3 21:33:33 10° NNE 21:37:26 31° ENE 21:37:55 30° E
Cosmos 990 Rocket 4.1 21:34:33 10° NNW 21:39:45 57° ENE 21:42:00 32° SE
Cosmos 1980 Rocket 2.1 21:36:37 10° S 21:42:12 63° ESE 21:47:50 10° NNE
Lacrosse 5 1.8 21:37:36 10° NW 21:42:42 89° NE 21:44:53 35° SE
deb Chang Zheng 4 3.9 21:39:19 10° NNE 21:43:34 43° E 21:44:26 38° SE
Cosmos 1842 4.4 21:43:04 10° NNE 21:46:02 28° ENE 21:46:02 28° ENE
H-2A R/B 4.0 21:46:51 13° ENE 21:46:55 13° ENE 21:49:00 10° NE
SPOT 5 3.2 21:49:22 38° ESE 21:50:40 47° ENE 21:55:16 10° N
Cosmos 1459 Rocket 3.8 21:45:16 10° S 21:51:18 85° E 21:57:27 10° N
ERS-1 Rocket 3.0 21:48:21 22° S 21:51:39 80° WSW 21:56:42 10° NNW
Cosmos 2150 Rocket 4.4 21:48:01 10° NNW 21:53:06 60° WSW 21:56:30 21° S
Cosmos 1725 Rocket 4.3 21:53:16 34° SE 21:55:05 43° E 22:00:54 10° NNE
Lacrosse 5 rocket 3.4 21:54:04 10° W 21:56:22 16° WSW 21:57:58 13° SSW
BREEZE-M TANK 2.8 21:47:24 10° WNW 21:57:03 84° SSW 21:58:04 50° ESE
Cosmos 1666 3.8 22:00:57 31° NE 22:00:57 31° NE 22:03:17 10° NNE
Cosmos 2058 Rocket 3.3 22:03:45 51° E 22:03:45 51° E 22:07:58 10° NNE
Cosmos 2098 Rocket 4.0 22:00:54 29° SSE 22:04:23 58° E 22:10:02 10° NNE
Cosmos 1763 Rocket 3.3 21:59:36 10° SSW 22:04:42 82° ESE 22:09:48 10° NNE
SPOT 1/Viking Rocket 4.1 22:05:15 38° E 22:05:44 39° ENE 22:10:34 10° N
Cosmos 1606 Rocket 3.5 22:06:32 41° S 22:08:03 87° W 22:12:31 10° N
CZ-4 DEB 4.4 22:07:23 25° SW 22:08:11 29° W 22:11:00 10° NW
Cosmos 2263 Rocket 3.5 22:04:08 10° N 22:08:32 23° NE 22:09:09 23° ENE
DELTA 2 R/B (1) 4.4 22:07:11 10° W 22:12:12 35° SSW 22:13:06 33° S
Meteor 1-15 Rocket 4.3 22:13:43 50° SE 22:14:46 57° E 22:20:31 10° NNE
Terra 3.7 22:15:54 17° NE 22:15:54 17° NE 22:18:10 10° NNE
YAOGAN 6 3.3 22:16:13 46° NNE 22:16:13 46° NNE 22:19:01 10° N
Cosmos 1125 Rocket 3.8 22:10:24 10° N 22:15:27 48° ENE 22:15:42 47° ENE
Cosmos 2322 Rocket 2.7 22:16:55 39° ENE 22:16:55 39° ENE 22:21:01 10° NE
Cosmos 2233 Rocket 4.4 22:19:10 40° E 22:19:10 40° E 22:24:42 10° NNE
Cosmos 1340 3.2 22:16:31 10° NNW 22:20:14 53° W 22:20:21 53° WSW
USA 215 4.2 22:18:44 24° ENE 22:21:46 37° NNE 22:27:38 10° NW
BREEZE-M DEB (TANK) 4.4 22:00:12 10° WNW 22:22:57 63° NNE 22:25:51 35° E
OAO 2 Rocket 4.1 22:18:47 10° WSW 22:22:50 37° SSW 22:22:50 37° SSW
Cosmos 1939 Rocket 4.3 22:25:01 28° SW 22:26:20 35° W 22:30:10 10° NNW
Meteor 2-9 Rocket 4.0 22:26:58 58° S 22:28:05 84° E 22:33:31 10° N
Cosmos 841 Rocket 3.7 22:23:26 13° SSW 22:28:10 70° WNW 22:33:24 10° NNE
SL-08 R/B 4.4 22:25:29 29° S 22:28:52 83° W 22:35:05 10° N
Cosmos 2360 4.3 22:24:17 10° SSW 22:29:59 76° WNW 22:35:45 10° NNE
Cosmos 1726 Rocket 4.1 22:30:18 47° WSW 22:31:08 57° W 22:35:29 10° N
MetOp-A 4.2 22:33:48 59° SSW 22:34:44 74° WSW 22:40:06 10° NNW
Cosmos 2227 4.4 22:30:41 10° NNW 22:36:22 64° WSW 22:37:26 53° SSW
Cosmos 2016 Rocket 4.5 22:35:00 16° SSW 22:39:50 56° W 22:45:57 10° N
ASTEX 1 3.9 22:39:39 10° N 22:44:33 56° W 22:45:35 46° WSW
Cosmos 1375 Rocket 4.4 22:50:12 49° SSW 22:52:10 86° ESE 22:58:48 10° NNE
BREEZE-M DEB (TANK) 4.1 22:52:17 10° WNW 22:53:27 27° WNW 22:53:27 27° WNW
Cosmos 372 Rocket 4.5 22:50:38 10° NNW 22:54:42 53° NNE 22:54:42 53° NNE
H-2A R/B 3.8 22:57:54 25° W 22:57:54 25° W 23:01:18 10° NW
SL-16 R/B 2.5 23:13:10 64° NW 23:13:10 64° NW 23:18:28 10° NNE
ARGOS 3.8 23:16:23 51° W 23:16:23 51° W 23:21:11 10° NNW
Lacrosse 5 4.3 23:22:23 10° W 23:24:05 14° WSW 23:24:05 14° WSW
H-2A R/B 3.1 23:27:29 40° NNW 23:27:29 40° NNW 23:30:38 10° NNW
Cosmos 2360 Rocket 4.0 23:30:08 23° NE 23:30:08 23° NE 23:32:09 10° NNE
Terra 3.8 23:54:47 26° NW 23:54:47 26° NW 23:56:59 10° NNW
Cosmos 2263 Rocket 3.4 23:47:22 10° NNW 23:50:51 36° NW 23:50:51 36° NW
